Weather History for Topeka, KS

Change the Weather History Date:

Sunday, May 5, 2013

  Actual Average Record
Temperature  
Mean Temperature 51 °F 62 °F  
Max Temperature 56 °F 73 °F 97 °F (1940)
Min Temperature 46 °F 51 °F 32 °F (1944)
Degree Days  
Heating Degree Days 14 5  
Month to date heating degree days 89 28  
Since 1 July heating degree days 4852 4945  
Cooling Degree Days 0 2  
Month to date cooling degree days 0 8  
Year to date cooling degree days 16 36  
Moisture  
Dew Point 45 °F    
Average Humidity 80    
Maximum Humidity 89    
Minimum Humidity 71    
Precipitation  
Precipitation 0.01 in 0.15 in 2.17 in (1977)
Month to date precipitation 0.99 0.76  
Year to date precipitation 8.56 8.96  
Snow  
Snow 0.00 in 0.00 in T in (1944)
Month to date snowfall T 0.0  
Year to date snowfall 24.2 11.3  
Since 1 July snowfall 29.6 17.8  
Snow Depth 0.00 in    
Sea Level Pressure  
Sea Level Pressure 30.12 in    
Wind  
Wind Speed 8 mph (NNW)    
Max Wind Speed 15 mph    
Max Gust Speed 20 mph    
Visibility 6 miles    
Events Rain    
T = Trace of Precipitation, MM = Missing Value Source: NWS Daily Summary

Daily Weather History Graph

Daily Weather History Graph

Search for Another Location

Airport:

Trip Planner

Search our weather history database for the weather conditions in past years. The results will help you decide how hot, cold, wet, or windy it might be!

Date:

Astronomy

May. 05, 2013 Rise Set
Actual Time 6:19 AM CDT 8:19 PM CDT
Civil Twilight 5:50 AM CDT 8:48 PM CDT
Nautical Twilight 5:14 AM CDT 9:24 PM CDT
Astronomical Twilight 4:36 AM CDT 10:03 PM CDT
Moon 3:48 AM CDT (5/5) 4:21 PM CDT (5/5)
Length of Visible Light 14h 58m
Length of Day
14h 00m
Waning Crescent, 18% of the Moon is Illuminated
May 5
Waning Crescent
May 9
New
May 17
First Quarter
May 24
Full
May 31
Last Quarter

Hourly Weather History & Observations

Time (CDT) Temp. Windchill Dew Point Humidity Pressure Visibility Wind Dir Wind Speed Gust Speed Precip Events Conditions
12:53 AM 46.0 °F 40.2 °F 43.0 °F 89% 30.09 in 4.0 mi North 12.7 mph - N/A   Overcast
1:53 AM 46.0 °F 42.5 °F 43.0 °F 89% 30.08 in 4.0 mi NW 6.9 mph 18.4 mph N/A   Overcast
2:53 AM 46.0 °F 41.9 °F 43.0 °F 89% 30.08 in 5.0 mi NNW 8.1 mph - N/A   Overcast
3:53 AM 46.0 °F 41.9 °F 43.0 °F 89% 30.09 in 5.0 mi NNW 8.1 mph - N/A   Overcast
4:53 AM 46.0 °F 41.9 °F 43.0 °F 89% 30.10 in 6.0 mi NW 8.1 mph - N/A   Overcast
5:53 AM 46.0 °F 41.0 °F 42.1 °F 86% 30.11 in 7.0 mi NNW 10.4 mph - N/A   Overcast
6:53 AM 46.0 °F 41.9 °F 42.1 °F 86% 30.12 in 5.0 mi NNW 8.1 mph - N/A   Overcast
7:53 AM 46.0 °F 43.1 °F 43.0 °F 89% 30.14 in 3.0 mi NNW 5.8 mph - 0.01 in Rain Light Rain
8:53 AM 46.0 °F 41.4 °F 43.0 °F 89% 30.15 in 6.0 mi NNW 9.2 mph - 0.00 in   Overcast
9:53 AM 46.9 °F - 43.0 °F 86% 30.15 in 7.0 mi NW 10.4 mph - N/A   Overcast
10:30 AM 46.9 °F - 43.0 °F 86% 30.14 in 7.0 mi NW 12.7 mph - N/A   Overcast
10:53 AM 48.0 °F - 44.1 °F 86% 30.16 in 6.0 mi NW 11.5 mph - N/A   Overcast
11:16 AM 48.0 °F - 43.0 °F 83% 30.16 in 5.0 mi NNW 10.4 mph - N/A   Haze
11:53 AM 48.0 °F - 44.1 °F 86% 30.17 in 5.0 mi NNW 8.1 mph - N/A   Overcast
12:53 PM 50.0 °F - 44.6 °F 82% 30.16 in 5.0 mi NW 9.2 mph - N/A   Haze
1:53 PM 51.1 °F - 45.0 °F 80% 30.14 in 5.0 mi WNW 8.1 mph - N/A   Haze
2:53 PM 53.1 °F - 45.0 °F 74% 30.14 in 7.0 mi NW 10.4 mph - N/A   Overcast
3:19 PM 53.1 °F - 45.0 °F 74% 30.12 in 7.0 mi NW 9.2 mph - N/A   Overcast
3:53 PM 54.0 °F - 46.0 °F 75% 30.12 in 6.0 mi WNW 11.5 mph - N/A   Haze
4:53 PM 55.9 °F - 46.9 °F 72% 30.10 in 7.0 mi WNW 6.9 mph - N/A   Overcast
5:53 PM 55.0 °F - 46.9 °F 74% 30.10 in 8.0 mi NNW 11.5 mph - N/A   Overcast
6:53 PM 54.0 °F - 46.9 °F 77% 30.10 in 10.0 mi North 8.1 mph - N/A   Overcast
7:53 PM 53.1 °F - 46.9 °F 80% 30.11 in 9.0 mi North 9.2 mph - N/A   Overcast
8:25 PM 53.1 °F - 46.9 °F 80% 30.11 in 10.0 mi NNW 10.4 mph - N/A   Overcast
8:53 PM 53.1 °F - 46.9 °F 80% 30.12 in 9.0 mi NNW 6.9 mph - N/A   Overcast
9:53 PM 52.0 °F - 46.9 °F 83% 30.12 in 8.0 mi NNW 5.8 mph - N/A   Overcast
10:53 PM 53.1 °F - 46.9 °F 80% 30.12 in 8.0 mi NNW 4.6 mph - N/A   Overcast
11:10 PM 52.0 °F - 48.0 °F 86% 30.12 in 7.0 mi North 3.5 mph - N/A   Overcast
11:53 PM 51.1 °F - 48.0 °F 89% 30.12 in 5.0 mi Calm Calm - N/A   Overcast